Time,TemperatureF,DewpointF,PressureIn,WindDirection,WindDirectionDegrees,WindSpeedMPH,WindSpeedGustMPH,Humidity,HourlyPrecipIn,Conditions,Clouds,dailyrainin,SoftwareType,DateUTC
2013-06-03 00:07:00,74.5,-32.1,29.81,SSW,202,4.2,-999.0,1,-99.99,,,0.00,Acu-Link.com,2013-06-03 04:07:00,
2013-06-03 00:22:00,74.5,-32.1,29.80,West,270,4.7,-999.0,1,-99.99,,,0.00,Acu-Link.com,2013-06-03 04:22:00,
2013-06-03 00:38:00,74.5,-32.1,29.80,West,270,5.3,-999.0,1,-99.99,,,0.01,Acu-Link.com,2013-06-03 04:38:00,
2013-06-03 00:53:00,74.3,-32.2,29.80,West,270,4.7,-999.0,1,-99.99,,,0.01,Acu-Link.com,2013-06-03 04:53:00,
2013-06-03 01:08:00,74.7,-32.0,29.81,SW,225,2.7,-999.0,1,-99.99,,,0.01,Acu-Link.com,2013-06-03 05:08:00,
2013-06-03 01:23:00,74.5,-32.1,29.80,WSW,247,2.7,-999.0,1,-99.99,,,0.01,Acu-Link.com,2013-06-03 05:23:00,
2013-06-03 01:38:00,74.7,-32.0,29.80,SW,225,1.1,-999.0,1,-99.99,,,0.01,Acu-Link.com,2013-06-03 05:38:00,
2013-06-03 01:54:00,74.7,-32.0,29.80,SW,225,2.7,-999.0,1,-99.99,,,0.01,Acu-Link.com,2013-06-03 05:54:00,
2013-06-03 02:09:00,74.8,-31.9,29.81,SW,225,2.2,-999.0,1,-99.99,,,0.01,Acu-Link.com,2013-06-03 06:09:00,
2013-06-03 02:24:00,74.7,-32.0,29.81,SW,225,2.7,-999.0,1,-99.99,,,0.02,Acu-Link.com,2013-06-03 06:24:00,
2013-06-03 02:39:00,74.7,-32.0,29.81,WSW,247,1.7,-999.0,1,-99.99,,,0.04,Acu-Link.com,2013-06-03 06:39:00,
2013-06-03 02:55:00,74.7,-32.0,29.80,SW,225,2.7,-999.0,1,-99.99,,,0.05,Acu-Link.com,2013-06-03 06:55:00,
2013-06-03 03:10:00,74.7,-32.0,29.80,SW,225,0.0,-999.0,1,-99.99,,,0.06,Acu-Link.com,2013-06-03 07:10:00,
2013-06-03 03:25:00,74.7,-32.0,29.79,SW,225,0.0,-999.0,1,-99.99,,,0.06,Acu-Link.com,2013-06-03 07:25:00,
2013-06-03 03:40:00,74.5,-32.1,29.80,SW,225,2.2,-999.0,1,-99.99,,,0.06,Acu-Link.com,2013-06-03 07:40:00,
2013-06-03 03:55:00,74.5,-32.1,29.80,SW,225,2.2,-999.0,1,-99.99,,,0.06,Acu-Link.com,2013-06-03 07:55:00,
2013-06-03 04:13:00,74.5,-32.1,29.80,SW,225,0.0,-999.0,1,-99.99,,,0.08,Acu-Link.com,2013-06-03 08:13:00,
2013-06-03 04:37:00,74.5,-32.1,29.80,SW,225,3.7,-999.0,1,-99.99,,,0.08,Acu-Link.com,2013-06-03 08:37:00,
2013-06-03 04:52:00,74.7,-32.0,29.79,SW,225,1.7,-999.0,1,-99.99,,,0.10,Acu-Link.com,2013-06-03 08:52:00,
2013-06-03 05:07:00,74.5,-32.1,29.79,SW,225,1.7,-999.0,1,-99.99,,,0.10,Acu-Link.com,2013-06-03 09:07:00,
2013-06-03 05:22:00,74.1,-32.4,29.79,SW,225,0.0,-999.0,1,-99.99,,,0.10,Acu-Link.com,2013-06-03 09:22:00,
2013-06-03 05:37:00,74.1,-32.4,29.79,SW,225,0.0,-999.0,1,-99.99,,,0.10,Acu-Link.com,2013-06-03 09:37:00,
2013-06-03 05:52:00,73.8,-32.5,29.80,SW,225,0.0,-999.0,1,-99.99,,,0.10,Acu-Link.com,2013-06-03 09:52:00,
2013-06-03 06:07:00,74.1,-32.4,29.80,SW,225,2.7,-999.0,1,-99.99,,,0.10,Acu-Link.com,2013-06-03 10:07:00,
2013-06-03 06:22:00,74.1,-32.4,29.80,SSW,202,2.7,-999.0,1,-99.99,,,0.10,Acu-Link.com,2013-06-03 10:22:00,
2013-06-03 06:38:00,74.1,-32.4,29.79,SSW,202,3.2,-999.0,1,-99.99,,,0.10,Acu-Link.com,2013-06-03 10:38:00,
2013-06-03 06:53:00,74.3,-32.2,29.80,South,180,6.8,-999.0,1,-99.99,,,0.10,Acu-Link.com,2013-06-03 10:53:00,
2013-06-03 07:08:00,74.8,-31.9,29.80,South,180,3.2,-999.0,1,-99.99,,,0.10,Acu-Link.com,2013-06-03 11:08:00,
2013-06-03 07:23:00,75.2,-31.7,29.80,SE,135,5.3,-999.0,1,-99.99,,,0.11,Acu-Link.com,2013-06-03 11:23:00,
2013-06-03 07:39:00,75.4,-31.6,29.80,West,270,4.7,-999.0,1,-99.99,,,0.11,Acu-Link.com,2013-06-03 11:39:00,
2013-06-03 07:54:00,74.8,-31.9,29.80,SSW,202,3.7,-999.0,1,-99.99,,,0.11,Acu-Link.com,2013-06-03 11:54:00,
2013-06-03 08:09:00,75.2,-31.7,29.81,West,270,2.7,-999.0,1,-99.99,,,0.11,Acu-Link.com,2013-06-03 12:09:00,
2013-06-03 08:24:00,75.2,-31.7,29.81,West,270,1.7,-999.0,1,-99.99,,,0.12,Acu-Link.com,2013-06-03 12:24:00,
2013-06-03 08:40:00,75.6,-31.5,29.81,West,270,2.2,-999.0,1,-99.99,,,0.12,Acu-Link.com,2013-06-03 12:40:00,
2013-06-03 08:55:00,75.6,-31.5,29.80,North,0,0.0,-999.0,1,-99.99,,,0.13,Acu-Link.com,2013-06-03 12:55:00,
2013-06-03 09:10:00,75.6,-31.5,29.80,NNE,22,1.7,-999.0,1,-99.99,,,0.19,Acu-Link.com,2013-06-03 13:10:00,
2013-06-03 09:25:00,74.5,-32.1,29.81,NE,45,7.8,-999.0,1,-99.99,,,0.19,Acu-Link.com,2013-06-03 13:25:00,
2013-06-03 09:56:00,73.2,-32.9,29.79,NNE,22,4.7,-999.0,1,-99.99,,,0.31,Acu-Link.com,2013-06-03 13:56:00,
2013-06-03 10:11:00,73.8,-32.5,29.78,NNE,22,1.7,-999.0,1,-99.99,,,0.32,Acu-Link.com,2013-06-03 14:11:00,
2013-06-03 10:27:00,73.9,-32.5,29.79,NNE,22,2.7,-999.0,1,-99.99,,,0.32,Acu-Link.com,2013-06-03 14:27:00,
2013-06-03 10:42:00,74.8,-31.9,29.79,NNE,22,2.2,-999.0,1,-99.99,,,0.48,Acu-Link.com,2013-06-03 14:42:00,
2013-06-03 10:57:00,75.9,-31.3,29.79,NNE,22,0.0,-999.0,1,-99.99,,,0.49,Acu-Link.com,2013-06-03 14:57:00,
2013-06-03 11:12:00,75.4,-31.6,29.79,ESE,112,4.2,-999.0,1,-99.99,,,0.49,Acu-Link.com,2013-06-03 15:12:00,
2013-06-03 11:27:00,75.0,-31.8,29.79,ESE,112,5.8,-999.0,1,-99.99,,,0.49,Acu-Link.com,2013-06-03 15:27:00,
2013-06-03 11:42:00,74.3,-32.2,29.79,SE,135,2.7,-999.0,1,-99.99,,,0.49,Acu-Link.com,2013-06-03 15:42:00,
2013-06-03 11:58:00,74.7,-32.0,29.79,SE,135,2.7,-999.0,1,-99.99,,,0.49,Acu-Link.com,2013-06-03 15:58:00,
2013-06-03 12:13:00,74.3,-32.2,29.78,ESE,112,4.7,-999.0,1,-99.99,,,0.49,Acu-Link.com,2013-06-03 16:13:00,
2013-06-03 12:29:00,74.1,-32.4,29.78,SSE,157,4.7,-999.0,1,-99.99,,,0.49,Acu-Link.com,2013-06-03 16:29:00,
2013-06-03 12:44:00,72.7,-33.2,29.78,East,90,2.2,-999.0,1,-99.99,,,0.51,Acu-Link.com,2013-06-03 16:44:00,
2013-06-03 12:59:00,73.6,-32.7,29.77,SSW,202,0.0,-999.0,1,-99.99,,,0.54,Acu-Link.com,2013-06-03 16:59:00,
2013-06-03 13:14:00,73.6,-32.7,29.75,SSW,202,1.1,-999.0,1,-99.99,,,0.54,Acu-Link.com,2013-06-03 17:14:00,
2013-06-03 13:30:00,73.8,-32.5,29.76,SSW,202,2.2,-999.0,1,-99.99,,,0.54,Acu-Link.com,2013-06-03 17:30:00,
2013-06-03 13:45:00,73.6,-32.7,29.76,North,0,5.8,-999.0,1,-99.99,,,0.82,Acu-Link.com,2013-06-03 17:45:00,
2013-06-03 14:00:00,73.6,-32.7,29.75,ENE,67,0.0,-999.0,1,-99.99,,,0.88,Acu-Link.com,2013-06-03 18:00:00,
2013-06-03 14:15:00,73.9,-32.5,29.76,ENE,67,2.7,-999.0,1,-99.99,,,0.88,Acu-Link.com,2013-06-03 18:15:00,
2013-06-03 14:30:00,73.9,-32.5,29.76,ENE,67,0.0,-999.0,1,-99.99,,,0.88,Acu-Link.com,2013-06-03 18:30:00,
2013-06-03 14:46:00,73.9,-32.5,29.75,ENE,67,0.0,-999.0,1,-99.99,,,0.88,Acu-Link.com,2013-06-03 18:46:00,
2013-06-03 15:16:00,74.3,-32.2,29.76,ENE,67,0.0,-999.0,1,-99.99,,,0.90,Acu-Link.com,2013-06-03 19:16:00,
2013-06-03 15:32:00,74.3,-32.2,29.75,ENE,67,0.0,-999.0,1,-99.99,,,0.90,Acu-Link.com,2013-06-03 19:32:00,
2013-06-03 15:47:00,74.3,-32.2,29.75,SW,225,3.7,-999.0,1,-99.99,,,0.90,Acu-Link.com,2013-06-03 19:47:00,
2013-06-03 16:02:00,74.5,-32.1,29.76,SSW,202,3.7,-999.0,1,-99.99,,,0.90,Acu-Link.com,2013-06-03 20:02:00,
2013-06-03 16:18:00,74.7,-32.0,29.75,South,180,2.2,-999.0,1,-99.99,,,0.90,Acu-Link.com,2013-06-03 20:18:00,
2013-06-03 16:33:00,74.5,-32.1,29.76,South,180,2.2,-999.0,1,-99.99,,,0.90,Acu-Link.com,2013-06-03 20:33:00,
2013-06-03 16:48:00,74.7,-32.0,29.74,SSE,157,1.7,-999.0,1,-99.99,,,0.90,Acu-Link.com,2013-06-03 20:48:00,
2013-06-03 17:03:00,74.5,-32.1,29.73,ESE,112,2.7,-999.0,1,-99.99,,,0.90,Acu-Link.com,2013-06-03 21:03:00,
2013-06-03 17:19:00,74.3,-32.2,29.73,SE,135,2.2,-999.0,1,-99.99,,,0.90,Acu-Link.com,2013-06-03 21:19:00,
2013-06-03 17:34:00,74.7,-32.0,29.73,SE,135,0.0,-999.0,1,-99.99,,,0.90,Acu-Link.com,2013-06-03 21:34:00,
2013-06-03 17:49:00,74.3,-32.2,29.73,SSE,157,1.7,-999.0,1,-99.99,,,0.90,Acu-Link.com,2013-06-03 21:49:00,
2013-06-03 18:04:00,74.1,-32.4,29.73,South,180,2.2,-999.0,1,-99.99,,,0.90,Acu-Link.com,2013-06-03 22:04:00,
2013-06-03 18:20:00,74.1,-32.4,29.73,SSE,157,3.7,-999.0,1,-99.99,,,0.90,Acu-Link.com,2013-06-03 22:20:00,
2013-06-03 18:35:00,74.5,-32.1,29.74,South,180,2.7,-999.0,1,-99.99,,,0.90,Acu-Link.com,2013-06-03 22:35:00,
2013-06-03 19:21:00,74.5,-32.1,29.75,SSW,202,1.7,-999.0,1,-99.99,,,0.90,Acu-Link.com,2013-06-03 23:21:00,
2013-06-03 19:36:00,74.3,-32.2,29.74,SSW,202,0.0,-999.0,1,-99.99,,,0.90,Acu-Link.com,2013-06-03 23:36:00,
2013-06-03 19:52:00,73.9,-32.5,29.73,SSW,202,1.7,-999.0,1,-99.99,,,0.90,Acu-Link.com,2013-06-03 23:52:00,
2013-06-03 20:08:00,73.8,-32.5,29.75,SSW,202,0.0,-999.0,1,-99.99,,,0.90,Acu-Link.com,2013-06-04 00:08:00,
2013-06-03 20:24:00,73.6,-32.7,29.74,SSW,202,0.0,-999.0,1,-99.99,,,0.90,Acu-Link.com,2013-06-04 00:24:00,
2013-06-03 20:39:00,73.4,-32.8,29.75,SSW,202,0.0,-999.0,1,-99.99,,,0.90,Acu-Link.com,2013-06-04 00:39:00,
2013-06-03 20:55:00,73.0,-33.0,29.75,SSW,202,0.0,-999.0,1,-99.99,,,0.90,Acu-Link.com,2013-06-04 00:55:00,
2013-06-03 21:10:00,73.2,-32.9,29.76,SSW,202,3.7,-999.0,1,-99.99,,,0.90,Acu-Link.com,2013-06-04 01:10:00,
2013-06-03 21:25:00,72.0,-33.6,29.75,NW,315,3.7,-999.0,1,-99.99,,,0.90,Acu-Link.com,2013-06-04 01:25:00,
2013-06-03 21:40:00,71.6,-33.9,29.75,WNW,292,2.7,-999.0,1,-99.99,,,0.90,Acu-Link.com,2013-06-04 01:40:00,
2013-06-03 21:56:00,71.4,-34.0,29.77,NW,315,1.7,-999.0,1,-99.99,,,0.90,Acu-Link.com,2013-06-04 01:56:00,
2013-06-03 22:26:00,71.1,-34.2,29.77,NW,315,1.7,-999.0,1,-99.99,,,0.90,Acu-Link.com,2013-06-04 02:26:00,
2013-06-03 22:41:00,71.1,-34.2,29.77,NNW,337,2.7,-999.0,1,-99.99,,,0.90,Acu-Link.com,2013-06-04 02:41:00,
2013-06-03 22:56:00,71.4,-34.0,29.78,NNW,337,2.2,-999.0,1,-99.99,,,0.90,Acu-Link.com,2013-06-04 02:56:00,
2013-06-03 23:11:00,71.2,-34.1,29.79,NNW,337,2.7,-999.0,1,-99.99,,,0.90,Acu-Link.com,2013-06-04 03:11:00,
2013-06-03 23:26:00,70.7,-34.4,29.79,NNW,337,3.2,-999.0,1,-99.99,,,0.90,Acu-Link.com,2013-06-04 03:26:00,
2013-06-03 23:42:00,70.5,-34.5,29.80,NNW,337,1.7,-999.0,1,-99.99,,,0.90,Acu-Link.com,2013-06-04 03:42:00,
2013-06-03 23:57:00,70.2,-34.7,29.80,NNW,337,4.2,-999.0,1,-99.99,,,0.90,Acu-Link.com,2013-06-04 03:57:00,